This demonstration page uses our WeatherBlox Daily Observations layout. Learn more.

Left ArrowRight Arrow

Hourly Observations for May 15, 2022

Temp ( °F °C ) Dew Point ( °F °C ) Humidity (%) Winds ( mph kmh ) Pressure ( in mb ) Visibility ( mi km ) Precip ( " mm )
12:13 am 00:13 Partly Cloudy with Thunderstorms 75 23.9 60 15.6 60 60 SSE 13 20 29.84 1011 10 16 0.00 0.00
12:53 am 00:53 Partly Cloudy 72 22.2 62 16.7 71 71 SE 6 9 29.85 1011 10 16 0.00 0.00
1:53 am 01:53 Partly Cloudy 71 21.7 62 16.7 73 73 E 5 7 29.87 1011 10 16 0.00 0.00
2:53 am 02:53 Clear 72 22.2 62 16.7 71 71 Calm 29.85 1011 10 16 0.00 0.00
3:53 am 03:53 Clear 66 18.9 61 16.1 84 84 N 3 6 29.86 1011 10 16 0.00 0.00
4:53 am 04:53 Clear 68 20 62 16.7 81 81 ESE 3 6 29.87 1012 10 16 0.00 0.00
5:53 am 05:53 Mostly Clear 68 20 63 17.2 84 84 SE 3 6 29.86 1011 10 16 0.00 0.00
6:53 am 06:53 Sunny 66 18.9 62 16.7 87 87 S 5 7 29.88 1012 7 11 0.00 0.00
7:53 am 07:53 Partly Cloudy 68 20 61 16.1 78 78 S 3 6 29.85 1011 10 16 0.00 0.00
8:53 am 08:53 Mostly Cloudy 69 20.6 62 16.7 78 78 NNE 9 15 29.90 1012 10 16 0.00 0.00
9:53 am 09:53 Partly Cloudy 71 21.7 62 16.7 73 73 NE 14 22 29.92 1013 10 16 0.00 0.00
10:53 am 10:53 Mostly Sunny 73 22.8 63 17.2 71 71 ENE 14 22 29.93 1013 10 16 0.00 0.00
11:53 am 11:53 Mostly Sunny 75 23.9 61 16.1 62 62 NE 16 26 29.93 1014 10 16 0.00 0.00
12:53 pm 12:53 Sunny 74 23.3 60 15.6 62 62 E 15 24 29.95 1014 10 16 0.00 0.00
1:53 pm 13:53 Partly Cloudy 76 24.4 60 15.6 58 58 E 17 28 29.93 1014 10 16 0.00 0.00
2:53 pm 14:53 Mostly Cloudy 75 23.9 59 15 58 58 ENE 18 30 29.95 1014 10 16 0.00 0.00
3:53 pm 15:53 Mostly Sunny 75 23.9 59 15 58 58 E 13 20 29.96 1014 10 16 0.00 0.00
4:53 pm 16:53 Mostly Sunny 77 25 59 15 54 54 E 12 19 29.94 1014 10 16 0.00 0.00
5:53 pm 17:53 Sunny 77 25 56 13.3 48 48 ENE 9 15 29.94 1014 10 16 0.00 0.00
6:53 pm 18:53 Sunny 76 24.4 57 13.9 52 52 NNE 16 26 29.94 1014 10 16 0.00 0.00
7:53 pm 19:53 Mostly Sunny 74 23.3 58 14.4 57 57 NNE 8 13 29.95 1014 10 16 0.00 0.00
8:53 pm 20:53 Mostly Clear 72 22.2 57 13.9 59 59 N 6 9 29.96 1015 10 16 0.00 0.00
9:53 pm 21:53 Partly Cloudy 71 21.7 57 13.9 61 61 NNE 8 13 29.98 1015 10 16 0.00 0.00
10:53 pm 22:53 Mostly Cloudy 70 21.1 56 13.3 61 61 NNE 10 17 30.01 1016 10 16 0.00 0.00
11:53 pm 23:53 Mostly Clear 67 19.4 55 12.8 66 66 NE 10 17 30.03 1017 10 16 0.00 0.00

Powered by AerisWeather